Flag for West Bank Weather past 2 weeks in Hebron, West Bank

Now
77 °F

Passing clouds.


Feels Like: 78 °F
Forecast: 63 / 80 °F
Wind: 5 mph from South

Location: Ben Gurion International Airport

Current Time: Jul 24, 2014 at 3:02:26 AM

Latest Report: Jul 24, 2014 at 2:20 AM


Visibility: N/A

Pressure: 29.80 "Hg

Humidity: 83%

Dew point: 72 °F

Location of HebronLocation

Historic Weather in Hebron — Graph

°F

Hebron temperature yesterday

Maximum temperature yesterday: 90 °F (at 12:20 PM)
Minimum temperature yesterday: 75 °F (at 2:50 AM)
Average temperature yesterday: 81 °F

Past Weeks' High & Low Weather Summary

 TemperatureHumidityPressure
High95 °F (Jul 12, 3:20 PM)83% (Jul 9, 1:20 AM)29.89 "Hg (Jul 9, 1:20 AM)
Low72 °F (Jul 10, 5:20 AM)34% (Jul 12, 3:20 PM)29.74 "Hg (Jul 9, 1:20 AM)
Average81 °F65%29.80 "Hg
* Reported Jul 9 1:20 AM — Jul 24 1:50 AM, Hebron, Weather by CustomWeather, © 2014

Note: Actual official high and low records may vary slightly from our data, if they occured in-between our weather recording intervals... More about our weather records

Advertising

Hebron weather history for previous 24 hours

 ConditionsComfort  
Time TempWeatherWind HumidityBarometerVisibility
1:50 AM
Jul 24
77 °FPassing clouds.6 mph83%29.80 "HgN/A
1:20 AM77 °FPassing clouds.5 mph83%29.80 "HgN/A
12:50 AM77 °FClear.6 mph83%29.80 "Hg10 mi
12:20 AM79 °FClear.3 mph79%29.80 "Hg10 mi
11:50 PM
Jul 23
79 °FClear.3 mph79%29.83 "Hg10 mi
11:20 PM79 °FClear.3 mph79%29.83 "Hg10 mi
10:50 PM79 °FPassing clouds.3 mph79%29.83 "HgN/A
10:20 PM79 °FPassing clouds.3 mph79%29.83 "HgN/A
9:50 PM81 °FClear.5 mph74%29.83 "Hg10 mi
9:20 PM81 °FClear.5 mph74%29.83 "Hg10 mi
8:50 PM81 °FClear.5 mph74%29.80 "Hg10 mi
8:20 PM81 °FSunny.6 mph74%29.80 "Hg10 mi
7:50 PM82 °FPassing clouds.7 mph74%29.80 "HgN/A
7:20 PM82 °FPassing clouds.8 mph74%29.80 "HgN/A
6:50 PM84 °FPassing clouds.9 mph70%29.80 "HgN/A
6:20 PM86 °FPassing clouds.10 mph66%29.77 "HgN/A
5:50 PM86 °FPassing clouds.12 mph66%29.77 "HgN/A
5:20 PM88 °FPassing clouds.13 mph62%29.77 "HgN/A
4:50 PM88 °FPassing clouds.13 mph59%29.77 "HgN/A
4:20 PM88 °FPassing clouds.14 mph62%29.77 "HgN/A
1:20 PM90 °FPassing clouds.12 mph55%29.77 "HgN/A
12:20 PM90 °FPassing clouds.9 mph55%29.80 "HgN/A
8:50 AM82 °FScattered clouds.6 mph70%29.80 "Hg6 mi
8:20 AM82 °FPassing clouds.6 mph70%29.80 "Hg6 mi
7:50 AM81 °FSunny.7 mph74%29.80 "Hg10 mi
7:20 AM79 °FSunny.5 mph74%29.80 "Hg10 mi
6:50 AM77 °FSunny.3 mph74%29.80 "Hg10 mi
6:20 AM75 °FPassing clouds.6 mph78%29.80 "HgN/A
5:50 AM75 °FPassing clouds.7 mph78%29.80 "HgN/A
5:20 AM75 °FPassing clouds.7 mph78%29.80 "HgN/A
4:50 AM75 °FPassing clouds.6 mph78%29.80 "HgN/A
4:20 AM75 °FPassing clouds.1 mph78%29.80 "HgN/A
3:50 AM75 °FPassing clouds.5 mph78%29.80 "HgN/A
3:20 AM75 °FPassing clouds.5 mph78%29.77 "HgN/A
Weather by CustomWeather, © 2014

See weather overviewHow to use our weather pages